Stratford, CT

4:38 AM EST on February 27, 2017 (GMT -0500)
Sikorsky Memorial

Weather History for KBDR - August, 2013

Change the Weather History Date:

Thursday, August 8, 2013

  Actual Average Record
Temperature  
Mean Temperature 76 °F 74 °F  
Max Temperature 81 °F 82 °F 95 °F (2007)
Min Temperature 71 °F 67 °F 54 °F (1948)
Degree Days  
Heating Degree Days 0 0  
Month to date heating degree days 0 0  
Since 1 June heating degree days 18 33  
Since 1 July heating degree days 0 1  
Cooling Degree Days 11 9  
Month to date cooling degree days 59 77  
Year to date cooling degree days 697 533  
Since 1 June cooling degree days 659 509  
Growing Degree Days 26 (Base 50)    
Moisture  
Dew Point 69 °F    
Average Humidity 83    
Maximum Humidity 93    
Minimum Humidity 73    
Precipitation  
Precipitation 0.11 in 0.13 in 1.40 in (1976)
Month to date precipitation 0.53 1.08  
Year to date precipitation 25.20 26.02  
Snow  
Snow 0.00 in 0.00 in 0.00 in (2002)
Month to date snowfall 0.0 0.0  
Since 1 July snowfall 0.0 0.0  
Snow Depth 0.00 in    
Sea Level Pressure  
Sea Level Pressure 30.06 in    
Wind  
Wind Speed 11 mph (SSW)    
Max Wind Speed 17 mph    
Max Gust Speed 23 mph    
Visibility 10 miles    
Events Rain    
T = Trace of Precipitation, MM = Missing Value Source: NWS Daily Summary

Daily Weather History Graph

Daily Weather History Graph

Search for Another Location

Airport or City:

Trip Planner

Search our weather history database for the weather conditions in past years. The results will help you decide how hot, cold, wet, or windy it might be!

Date:

Astronomy

Aug. 08, 2013 Rise Set
Actual Time 5:55 AM EDT 8:00 PM EDT
Civil Twilight 5:24 AM EDT 8:30 PM EDT
Nautical Twilight 4:47 AM EDT 9:07 PM EDT
Astronomical Twilight 4:07 AM EDT 9:47 PM EDT
Moon 7:41 AM EDT (8/8) 8:35 PM EDT (8/8)
Length of Visible Light 15h 05m
Length of Day
14h 05m
Waxing Crescent, 3% of the Moon is Illuminated
Aug 8
Waxing Crescent
Aug 14
First Quarter
Aug 20
Full
Aug 28
Last Quarter
Sep 5
New

Hourly Weather History & Observations

Time (EDT) Temp. Heat Index Dew Point Humidity Pressure Visibility Wind Dir Wind Speed Gust Speed Precip Events Conditions
12:52 AM 73.0 °F - 66.0 °F 79% 30.08 in 10.0 mi South 6.9 mph - 0.00 in   Overcast
1:52 AM 73.9 °F - 64.9 °F 73% 30.08 in 10.0 mi South 9.2 mph - N/A   Overcast
2:52 AM 72.0 °F - 68.0 °F 87% 30.06 in 9.0 mi South 9.2 mph - 0.03 in Rain Light Rain
3:52 AM 72.0 °F - 69.1 °F 91% 30.06 in 10.0 mi South 10.4 mph - 0.04 in Rain Light Rain
4:52 AM 72.0 °F - 69.1 °F 91% 30.06 in 10.0 mi SSW 15.0 mph - 0.04 in   Overcast
5:21 AM 71.6 °F - 68.0 °F 88% 30.06 in 10.0 mi SSW 15.0 mph - N/A   Overcast
5:48 AM 71.6 °F - 66.2 °F 83% 30.06 in 10.0 mi SW 13.8 mph - N/A   Overcast
5:52 AM 71.1 °F - 66.9 °F 87% 30.06 in 10.0 mi SSW 11.5 mph - N/A   Overcast
6:29 AM 71.6 °F - 66.2 °F 83% 30.06 in 10.0 mi SW 10.4 mph - N/A   Overcast
6:49 AM 71.6 °F - 66.2 °F 83% 30.06 in 10.0 mi SSW 11.5 mph - N/A   Overcast
6:52 AM 71.1 °F - 66.9 °F 87% 30.06 in 10.0 mi SSW 8.1 mph - N/A   Overcast
7:10 AM 71.6 °F - 68.0 °F 88% 30.07 in 10.0 mi SSW 9.2 mph - N/A   Overcast
7:52 AM 72.0 °F - 69.1 °F 91% 30.06 in 10.0 mi SSW 12.7 mph - N/A   Overcast
8:52 AM 73.9 °F - 70.0 °F 87% 30.07 in 10.0 mi SSW 11.5 mph - N/A   Overcast
9:52 AM 73.9 °F - 70.0 °F 87% 30.07 in 10.0 mi SSW 13.8 mph - N/A   Overcast
10:35 AM 73.4 °F - 69.8 °F 88% 30.07 in 10.0 mi South 12.7 mph - N/A   Overcast
10:52 AM 75.0 °F - 70.0 °F 84% 30.07 in 10.0 mi South 15.0 mph - N/A   Overcast
11:35 AM 75.2 °F - 71.6 °F 89% 30.06 in 10.0 mi South 11.5 mph 20.7 mph N/A   Mostly Cloudy
11:52 AM 75.9 °F - 70.0 °F 82% 30.06 in 10.0 mi South 12.7 mph - N/A   Mostly Cloudy
12:52 PM 77.0 °F - 71.1 °F 82% 30.06 in 10.0 mi South 10.4 mph - N/A   Overcast
1:18 PM 78.8 °F - 71.6 °F 78% 30.06 in 10.0 mi South 9.2 mph - N/A   Overcast
1:52 PM 77.0 °F - 70.0 °F 79% 30.06 in 10.0 mi South 9.2 mph - N/A   Overcast
2:34 PM 78.8 °F - 71.6 °F 78% 30.06 in 10.0 mi South 10.4 mph - N/A   Scattered Clouds
2:52 PM 79.0 °F - 71.1 °F 77% 30.05 in 10.0 mi South 9.2 mph - N/A   Clear
3:52 PM 79.0 °F - 72.0 °F 79% 30.04 in 10.0 mi South 9.2 mph - N/A   Clear
4:26 PM 80.6 °F 84.6 °F 71.6 °F 74% 30.04 in 10.0 mi South 9.2 mph - N/A   Mostly Cloudy
4:36 PM 80.6 °F 84.6 °F 71.6 °F 74% 30.04 in 10.0 mi South 11.5 mph - N/A   Scattered Clouds
4:52 PM 80.1 °F 83.8 °F 72.0 °F 76% 30.04 in 10.0 mi South 11.5 mph - N/A   Clear
5:52 PM 78.1 °F - 71.1 °F 79% 30.03 in 10.0 mi South 12.7 mph - N/A   Mostly Cloudy
6:52 PM 77.0 °F - 71.1 °F 82% 30.03 in 10.0 mi SSW 5.8 mph - N/A   Clear